Regional Weather Roundup
Issued by NWS Cleveland, OH

Home | Current Version | Previous Version | Graphics & Text | Print | Product List | Glossary On
Versions: 1 2 3 4 5 6 7 8 9 10 11 12 13 14 15 16 17 18 19 20 21 22 23 24 25 26 27 28 29 30 31 32 33 34 35 36 37 38 39 40 41 42 43 44 45 46 47 48 49 50
000
ASUS41 KCLE 292210
RWRCLE
OHIO REGIONAL WEATHER ROUNDUP
NATIONAL WEATHER SERVICE CLEVELAND, OH
600 PM EDT SUN MAY 29 2016

NOTE: "FAIR" INDICATES FEW OR NO CLOUDS BELOW 12,000 FEET WITH NO
SIGNIFICANT WEATHER AND/OR OBSTRUCTIONS TO VISIBILITY.

OHZ001>008-015>018-024>027-034-035-043-044-292300-
   NORTHWEST OHIO

CITY           SKY/WX    TMP DP  RH WIND       PRES   REMARKS
DEFIANCE       MOSUNNY   88  51  28 W12G21    29.95S
FINDLAY        MOSUNNY   81  59  47 W17       29.96S
TOLEDO EXPRESS CLOUDY    79  65  62 SW10      29.94S
TOLEDO EXEC    MOSUNNY   82  61  48 W12       29.94S
LIMA           LGT RAIN  81  64  56 W15       29.98S
$$

OHZ009>014-019>023-028>033-038-089-292300-
   NORTHEAST OHIO

CITY           SKY/WX    TMP DP  RH WIND       PRES   REMARKS
CLE-HOPKINS    CLOUDY    83  63  50 S13G21    30.00F
CLE-LAKEFRONT  MOSUNNY   84  63  49 S12       29.96F
CUY CO. ARPT   CLOUDY    82  63  51 S16       30.00F
LORAIN-ELYRIA  CLOUDY    83  64  52 S15       29.98F
ASHTABULA      CLOUDY    79  66  64 S7        30.02F
AKRON-CANTON   CLOUDY    80  63  55 S9        30.03F
WOOSTER        CLOUDY    82  62  50 S13       30.02F
MANSFIELD      CLOUDY    82  65  56 S14       30.02F
YOUNGSTOWN     CLOUDY    77  64  64 S9        30.04F
$$

OHZ042-051>053-060>062-070>072-077>081-292300-
  SOUTHWEST OHIO

CITY           SKY/WX    TMP DP  RH WIND       PRES   REMARKS
CINC-COVINGTON PTSUNNY   83  65  54 SW3       30.01F
CINC-LUNKEN    MOSUNNY   84  69  60 VRB5      29.99F
HAMILTON       SUNNY     87  65  47 SW10G17   30.00F
DAYTON         PTSUNNY   81  66  61 S13G21    30.01S THUNDER
WRIGHT-PAT AFB TSTM      77  66  69 W22G31    30.02R
DAYTON GENERAL CLOUDY    81  64  56 S10       29.99F
WILMINGTON     CLOUDY    80  65  59 SW10      30.01F
$$

OHZ036-037-039>041-045>050-054>059-063>069-073>076-082>088-292300-
  CENTRAL AND SOUTHEAST OHIO

CITY           SKY/WX    TMP DP  RH WIND       PRES   REMARKS
COLUMBUS       CLOUDY    82  61  47 SE10G16   29.99F THUNDER
OSU AIRPORT    CLOUDY    83  65  54 S14       29.99F
BOLTON FIELD   SUNNY     82  66  57 S9        30.01F
RICKENBACK AFB CLOUDY    83  65  53 S13       30.00F
NEWARK         CLOUDY    83  64  52 S10       30.01F
MARION         HVY RAIN  78  67  68 S8G18     29.99F
LANCASTER      CLOUDY    83  61  47 S10       30.02F
ZANESVILLE     CLOUDY    74  61  63 SE10      30.06F
NEW PHILLY     CLOUDY    78  65  63 SE5       30.05F
$$



USA.gov is the U.S. government's official web portal to all federal, state and local government web resources and services.